Location: Paderno d�Adda
(45.6667°N, 9.4333°E)
Time: 00:12:57
(UTC+00:00)

Cosmos 1898 Rocket - Pass Details

Date: 19 September 2020
Orbit: 753 x 784 km, 74.0° (Epoch: 26 October)

Event Time Altitude Azimuth Distance (km) Brightness Sun altitude
Rises 17:46:48 0° 194° (SSW) 3,192 6.8 -4.6°
Reaches altitude 10° 17:49:09 10° 193° (SSW) 2,270 6.0 -5.0°
Maximum altitude 17:54:17 74° 109° (ESE) 786 3.4 -5.9°
Drops below altitude 10° 17:59:27 10° 25° (NNE) 2,291 5.8 -6.8°
Sets 18:01:50 0° 24° (NNE) 3,223 6.6 -7.2°
